DW9046 Weather Reports


time (UTC)temp
C
wind
direction
speed
KPH
gust
KPH
rain 1hr
cm
rain 24hr
cm
rain mn
cm
humidity
%
barometer
mb
20190422083216 20 107 19.3 19.3 0.00 0.00 0.00 37 1009.2
20190422082315 20 110 16.1 29.0 0.00 0.00 0.00 37 1009.3
20190422081417 20 96 11.3 19.3 0.00 0.00 0.00 39 1009.3
20190422080518 19 104 9.7 16.1 0.00 0.00 0.00 41 1009.4
20190422075615 18 104 9.7 14.5 0.00 0.00 0.00 43 1009.5
20190422074716 18 101 9.7 14.5 0.00 0.00 0.00 45 1009.6
20190422073816 18 103 9.7 11.3 0.00 0.00 0.00 46 1009.7
20190422072916 17 123 6.4 14.5 0.00 0.00 0.00 48 1009.8
20190422072016 17 133 4.8 9.7 0.00 0.00 0.00 52 1009.8
20190422071116 16 135 1.6 6.4 0.00 0.00 0.00 52 1009.8
20190422070215 16 135 0.0 6.4 0.00 0.00 0.00 57 1009.9
20190422065316 16 138 0.0 4.8 0.00 0.00 0.00 61 1010.0
20190422064416 15 137 0.0 6.4 0.00 0.00 0.00 63 1010.0
20190422063516 14 136 0.0 6.4 0.00 0.00 0.00 67 1010.1
20190422062826 13 138 0.0 4.8 0.00 0.00 0.00 69 1010.1
20190422061715 13 0 0.0 0.0 0.00 0.00 0.00 74 1010.1
20190422060816 11 0 0.0 0.0 0.00 0.00 0.00 83 1010.2
20190422055916 10 0 0.0 0.0 0.00 0.00 0.00 85 1010.2
20190422055016 8 0 0.0 0.0 0.00 0.00 0.00 86 1010.2
20190422054115 8 0 0.0 0.0 0.00 0.00 0.00 87 1010.2
20190422053216 7 154 0.0 1.6 0.00 0.00 0.00 88 1010.2
20190422052316 7 0 0.0 1.6 0.00 0.00 0.00 88 1010.3
20190422051416 6 151 0.0 1.6 0.00 0.00 0.00 88 1010.3
20190422050516 6 0 0.0 0.0 0.00 0.00 0.00 88 1010.3
20190422045616 6 150 0.0 1.6 0.00 0.00 0.00 88 1010.3
20190422044715 6 0 0.0 0.0 0.00 0.00 0.00 89 1010.4
20190422043816 6 0 0.0 0.0 0.00 0.00 0.00 89 1010.3
20190422042916 6 150 0.0 4.8 0.00 0.00 0.00 88 1010.4
20190422042016 6 152 0.0 4.8 0.00 0.00 0.00 88 1010.4
20190422041115 6 0 0.0 0.0 0.00 0.00 0.00 88 1010.5
20190422040216 6 0 0.0 0.0 0.00 0.00 0.00 88 1010.6
20190422035315 6 0 0.0 0.0 0.00 0.00 0.00 88 1010.7
20190422034416 6 0 0.0 0.0 0.00 0.00 0.00 87 1010.8
20190422033516 6 0 0.0 0.0 0.00 0.00 0.00 87 1010.8
20190422032616 6 0 0.0 0.0 0.00 0.00 0.00 87 1010.9
20190422031716 6 0 0.0 0.0 0.00 0.00 0.00 87 1011.0
20190422030816 6 0 0.0 0.0 0.00 0.00 0.00 87 1011.2
20190422025915 6 0 0.0 0.0 0.00 0.00 0.00 86 1011.3
20190422025016 6 0 0.0 0.0 0.00 0.00 0.00 87 1011.4
20190422024116 6 0 0.0 0.0 0.00 0.00 0.00 87 1011.4
20190422023216 6 0 0.0 0.0 0.00 0.00 0.00 86 1011.6
20190422022316 6 0 0.0 0.0 0.00 0.00 0.00 85 1011.7
20190422021416 7 0 0.0 0.0 0.00 0.00 0.00 85 1011.8
20190422020515 7 0 0.0 0.0 0.00 0.00 0.00 85 1011.9
20190422015616 7 0 0.0 0.0 0.00 0.00 0.00 85 1012.0
20190422014715 7 0 0.0 0.0 0.00 0.00 0.00 86 1012.0
20190422013816 7 0 0.0 0.0 0.00 0.00 0.00 86 1012.1
20190422012915 7 0 0.0 0.0 0.00 0.00 0.00 86 1012.1
20190422012016 7 0 0.0 0.0 0.00 0.00 0.00 84 1012.1
20190422011115 7 0 0.0 0.0 0.00 0.00 0.00 84 1012.2
20190422010216 7 0 0.0 0.0 0.00 0.00 0.00 82 1012.3
20190422005315 7 0 0.0 0.0 0.00 0.00 0.00 81 1012.5
20190422004416 8 0 0.0 0.0 0.00 0.00 0.00 80 1012.6
20190422003515 8 0 0.0 0.0 0.00 0.00 0.00 79 1012.7
20190422002616 9 0 0.0 0.0 0.00 0.00 0.00 78 1012.7
20190422001715 10 0 0.0 0.0 0.00 0.00 0.00 78 1012.8
20190422000816 10 0 0.0 0.0 0.00 0.00 0.00 77 1012.9
20190421235915 10 0 0.0 0.0 0.00 0.00 0.00 78 1012.9
20190421235016 10 0 0.0 0.0 0.00 0.00 0.00 79 1013.1
20190421234116 10 0 0.0 0.0 0.00 0.00 0.00 78 1013.3
20190421233215 10 0 0.0 0.0 0.00 0.00 0.00 77 1013.4
20190421232316 10 0 0.0 0.0 0.00 0.00 0.00 75 1013.4
20190421231415 10 0 0.0 0.0 0.00 0.00 0.00 75 1013.5
20190421230515 11 0 0.0 0.0 0.00 0.00 0.00 75 1013.5
20190421225615 11 0 0.0 0.0 0.00 0.00 0.00 69 1013.6
20190421224715 11 0 0.0 0.0 0.00 0.00 0.00 68 1013.6
20190421223816 11 0 0.0 0.0 0.00 0.00 0.00 68 1013.7
20190421222915 11 0 0.0 0.0 0.00 0.00 0.00 67 1013.7
20190421222016 12 0 0.0 0.0 0.00 0.00 0.00 67 1013.7
20190421221116 12 0 0.0 0.0 0.00 0.00 0.00 67 1013.7
20190421220216 12 0 0.0 0.0 0.00 0.00 0.00 66 1013.8
20190421215315 12 0 0.0 0.0 0.00 0.00 0.00 66 1013.9
20190421214415 11 0 0.0 0.0 0.00 0.00 0.00 67 1013.9
20190421213516 11 0 0.0 0.0 0.00 0.00 0.00 70 1013.9
20190421212615 12 0 0.0 0.0 0.00 0.00 0.00 68 1013.9
20190421211715 12 0 0.0 0.0 0.00 0.00 0.00 68 1014.0
20190421210815 12 0 0.0 0.0 0.00 0.00 0.00 66 1014.1
20190421205915 12 0 0.0 0.0 0.00 0.00 0.00 66 1014.2
20190421205016 13 0 0.0 0.0 0.00 0.00 0.00 64 1014.3
20190421204115 13 0 0.0 0.0 0.00 0.00 0.00 62 1014.3
20190421203216 13 0 0.0 0.0 0.00 0.00 0.00 67 1014.3
20190421202315 13 0 0.0 0.0 0.00 0.00 0.00 66 1014.4
20190421201415 14 0 0.0 0.0 0.00 0.00 0.00 64 1014.4
20190421200515 15 0 0.0 0.0 0.00 0.00 0.00 60 1014.5
20190421195615 15 0 0.0 0.0 0.00 0.00 0.00 57 1014.5
20190421194715 16 0 0.0 0.0 0.00 0.00 0.00 57 1014.6
20190421193816 16 0 0.0 0.0 0.00 0.00 0.00 54 1014.7
20190421192915 16 0 0.0 0.0 0.00 0.00 0.00 51 1014.7
20190421192015 17 0 0.0 0.0 0.00 0.00 0.00 47 1014.7
20190421191115 18 0 0.0 0.0 0.00 0.00 0.00 43 1014.7
20190421190216 20 140 0.0 1.6 0.00 0.00 0.00 41 1014.6
20190421185316 20 0 0.0 0.0 0.00 0.00 0.00 38 1014.6
20190421184415 21 32 0.0 1.6 0.00 0.00 0.00 35 1014.6
20190421183516 21 30 0.0 1.6 0.00 0.00 0.00 34 1014.6
20190421182616 22 51 0.0 1.6 0.00 0.00 0.00 32 1014.5
20190421181716 22 61 0.0 1.6 0.00 0.00 0.00 31 1014.6
20190421180815 23 75 3.2 6.4 0.00 0.00 0.00 30 1014.5
20190421175916 23 73 8.0 11.3 0.00 0.00 0.00 30 1014.5
20190421175016 23 63 8.0 16.1 0.00 0.00 0.00 29 1014.5
20190421174115 23 50 8.0 9.7 0.00 0.00 0.00 29 1014.7
20190421173216 23 59 6.4 11.3 0.00 0.00 0.00 28 1014.8
20190421172316 23 69 8.0 16.1 0.00 0.00 0.00 28 1014.8
20190421171415 24 73 9.7 11.3 0.00 0.00 0.00 27 1014.8
20190421170516 24 90 6.4 16.1 0.00 0.00 0.00 27 1015.0
20190421165615 24 68 8.0 14.5 0.00 0.00 0.00 28 1015.0
20190421164716 24 66 9.7 16.1 0.00 0.00 0.00 27 1015.0
20190421163815 24 57 14.5 19.3 0.00 0.00 0.00 27 1015.1
20190421162916 24 41 11.3 24.1 0.00 0.00 0.00 27 1015.3
20190421162016 24 44 9.7 19.3 0.00 0.00 0.00 29 1015.4
20190421161115 24 64 11.3 14.5 0.00 0.00 0.00 29 1015.6
20190421160215 24 46 12.9 19.3 0.00 0.00 0.00 27 1015.6
20190421155315 24 89 14.5 16.1 0.00 0.00 0.00 27 1015.8
20190421154416 24 85 14.5 24.1 0.00 0.00 0.00 27 1015.9
20190421153516 24 88 12.9 19.3 0.00 0.00 0.00 27 1016.0
20190421152615 25 75 14.5 14.5 0.00 0.00 0.00 29 1016.1
20190421151715 25 42 11.3 20.9 0.00 0.00 0.00 28 1016.1
20190421150815 25 61 14.5 19.3 0.00 0.00 0.00 27 1016.2
20190421145916 25 63 14.5 19.3 0.00 0.00 0.00 27 1016.3
20190421145016 25 64 16.1 19.3 0.00 0.00 0.00 29 1016.4
20190421144116 25 54 17.7 29.0 0.00 0.00 0.00 27 1016.5
20190421143215 25 42 16.1 16.1 0.00 0.00 0.00 28 1016.6
20190421142316 24 54 17.7 25.7 0.00 0.00 0.00 28 1016.6
20190421141415 25 79 14.5 20.9 0.00 0.00 0.00 27 1016.7
20190421140516 25 126 12.9 19.3 0.00 0.00 0.00 26 1016.9
20190421135616 25 99 9.7 20.9 0.00 0.00 0.00 28 1016.9
20190421134715 24 130 16.1 25.7 0.00 0.00 0.00 30 1017.1
20190421133815 25 76 14.5 24.1 0.00 0.00 0.00 29 1017.2
20190421132916 24 81 19.3 19.3 0.00 0.00 0.00 29 1017.3
20190421132016 24 96 19.3 29.0 0.00 0.00 0.00 30 1017.4
20190421131116 25 40 14.5 29.0 0.00 0.00 0.00 28 1017.5
20190421130215 24 30 12.9 24.1 0.00 0.00 0.00 29 1017.8
20190421125316 24 29 6.4 24.1 0.00 0.00 0.00 28 1017.9
20190421124415 24 133 11.3 11.3 0.00 0.00 0.00 29 1018.0
20190421123516 24 100 14.5 20.9 0.00 0.00 0.00 31 1018.2
20190421122615 23 89 12.9 16.1 0.00 0.00 0.00 30 1018.3
20190421121715 23 102 9.7 20.9 0.00 0.00 0.00 31 1018.4
20190421120815 23 83 12.9 16.1 0.00 0.00 0.00 32 1018.5
20190421115916 23 98 12.9 20.9 0.00 0.00 0.00 31 1018.7
20190421115016 23 122 14.5 24.1 0.00 0.00 0.00 33 1018.8
20190421114115 23 75 19.3 24.1 0.00 0.00 0.00 36 1018.9
20190421113216 23 88 16.1 24.1 0.00 0.00 0.00 36 1019.1
20190421112316 23 98 19.3 20.9 0.00 0.00 0.00 37 1019.1
20190421111416 22 63 16.1 20.9 0.00 0.00 0.00 36 1019.3
20190421110516 22 83 14.5 20.9 0.00 0.00 0.00 37 1019.4
20190421105615 22 73 16.1 24.1 0.00 0.00 0.00 37 1019.5
20190421104716 22 36 12.9 19.3 0.00 0.00 0.00 38 1019.6
20190421103816 22 55 9.7 16.1 0.00 0.00 0.00 38 1019.6
20190421102915 22 72 9.7 11.3 0.00 0.00 0.00 40 1019.8
20190421102016 22 70 9.7 16.1 0.00 0.00 0.00 39 1019.9
20190421101115 21 46 8.0 16.1 0.00 0.00 0.00 40 1020.1
20190421100215 21 50 6.4 16.1 0.00 0.00 0.00 39 1020.3
20190421095315 21 66 8.0 14.5 0.00 0.00 0.00 42 1020.4
20190421094415 21 60 6.4 16.1 0.00 0.00 0.00 41 1020.5
20190421093516 20 59 8.0 16.1 0.00 0.00 0.00 44 1020.6
20190421092615 20 48 8.0 14.5 0.00 0.00 0.00 43 1020.7
20190421090816 20 64 9.7 9.7 0.00 0.00 0.00 44 1020.9
20190421085915 19 76 8.0 14.5 0.00 0.00 0.00 46 1021.0
20190421085015 18 70 6.4 11.3 0.00 0.00 0.00 46 1021.1
20190421084116 18 71 9.7 11.3 0.00 0.00 0.00 46 1021.2